period_start,C,m1,H,J0,J1,J2,J3,J4,J5,JA,JB,JC,JD,JJ,JK,JN,#
2013-08-19 00:00:29,0.00,0.05,0.00,24.61,28.62,30.66,5.93,30.83,1008.28,2045.01,3456.55,3329.08,3622.02,350.22,319.78,9.42,0000 0000 0000 0000 000000
2013-08-19 00:01:29,-0.00,0.05,0.00,24.57,28.63,30.49,5.96,30.92,1008.24,2045.04,3456.64,3329.10,3622.02,350.29,319.86,9.43,0000 0000 0000 0000 000000
2013-08-19 00:02:30,0.00,0.05,0.00,24.58,28.63,30.45,5.79,30.54,1008.25,2045.05,3456.55,3329.11,3622.02,349.26,318.92,9.43,0000 0000 0000 0000 000000
2013-08-19 00:03:30,0.01,0.05,0.00,24.55,28.63,30.53,5.81,30.58,1008.25,2045.04,3456.50,3329.12,3622.00,349.82,319.00,9.44,0000 0000 0000 0000 000000
2013-08-19 00:04:30,0.01,0.06,0.00,24.56,28.64,30.58,5.83,30.46,1008.22,2045.04,3456.40,3329.05,3622.01,350.19,320.09,9.44,0000 0000 0000 0000 000000
2013-08-19 00:05:30,0.01,0.06,0.00,24.55,28.64,30.60,5.98,30.67,1008.24,2045.04,3456.45,3329.07,3622.01,350.30,319.89,9.45,0000 0000 0000 0000 000000
2013-08-19 00:06:31,0.00,0.06,0.00,24.58,28.65,30.60,5.80,30.71,1008.21,2045.02,3456.35,3329.03,3622.00,349.34,319.22,9.46,0000 0000 0000 0000 000000
2013-08-19 00:07:31,0.01,0.06,0.00,24.61,28.65,30.52,5.87,30.75,1008.14,2045.03,3456.39,3329.04,3622.00,349.66,319.22,9.46,0000 0000 0000 0000 000000
2013-08-19 00:08:31,0.00,0.06,0.00,24.64,28.65,30.50,5.87,30.88,1008.04,2045.02,3456.60,3329.03,3622.00,349.85,319.20,9.47,0000 0000 0000 0000 000000
2013-08-19 00:09:32,-0.02,0.05,0.00,24.65,28.65,30.53,5.73,30.83,1008.14,2045.01,3456.60,3329.02,3622.00,348.31,317.79,9.47,0000 0000 0000 0000 000000
2013-08-19 00:10:32,-0.01,0.05,0.00,24.62,28.65,30.61,5.95,30.71,1008.09,2045.03,3456.69,3329.02,3622.00,350.18,319.66,9.48,0000 0000 0000 0000 000000
2013-08-19 00:11:32,0.01,0.05,0.00,24.60,28.65,30.53,5.97,30.96,1008.10,2045.02,3456.58,3329.02,3622.00,350.09,319.41,9.49,0000 0000 0000 0000 000000
2013-08-19 00:12:32,0.02,0.05,0.00,24.57,28.65,30.56,5.95,30.67,1008.20,2045.00,3456.28,3329.01,3622.00,350.07,319.84,9.49,0000 0000 0000 0000 000000
2013-08-19 00:13:33,0.01,0.06,0.00,24.56,28.65,30.54,5.86,30.83,1008.18,2045.01,3456.20,3329.00,3622.00,349.72,319.61,9.50,0000 0000 0000 0000 000000
2013-08-19 00:14:33,0.01,0.06,0.00,24.56,28.65,30.44,5.86,30.88,1008.20,2045.01,3456.17,3329.00,3622.00,349.73,319.54,9.50,0000 0000 0000 0000 000000
2013-08-19 00:15:33,0.00,0.06,0.00,24.55,28.65,30.36,5.82,30.83,1008.13,2045.00,3456.10,3329.00,3621.99,350.31,319.52,9.51,0000 0000 0000 0000 000000
2013-08-19 00:16:33,0.00,0.06,0.00,24.53,28.65,30.33,5.99,30.92,1008.02,2045.00,3456.12,3329.00,3621.98,350.00,319.58,9.51,0000 0000 0000 0000 000000
2013-08-19 00:17:34,-0.01,0.06,0.00,24.53,28.65,30.33,5.77,30.75,1007.94,2045.01,3456.18,3329.00,3621.99,349.25,318.86,9.52,0000 0000 0000 0000 000000
2013-08-19 00:18:34,-0.00,0.06,0.00,24.56,28.66,30.30,5.93,31.21,1007.92,2045.00,3456.10,3329.00,3621.99,349.99,319.50,9.53,0000 0000 0000 0000 000000
2013-08-19 00:19:34,0.00,0.06,0.00,24.53,28.67,30.27,5.90,30.71,1008.00,2045.00,3456.07,3329.00,3621.99,350.46,319.98,9.53,0000 0000 0000 0000 000000
2013-08-19 00:20:34,0.00,0.06,0.00,24.56,28.67,30.32,6.00,31.00,1008.12,2045.00,3456.05,3329.00,3621.99,350.48,320.19,9.54,0000 0000 0000 0000 000000
2013-08-19 00:21:34,0.00,0.06,0.00,24.58,28.67,30.32,5.66,30.42,1008.18,2045.00,3456.07,3329.00,3621.99,350.36,319.90,9.54,0000 0000 0000 0000 000000
2013-08-19 00:22:35,0.00,0.06,0.00,24.57,28.67,30.32,5.84,30.63,1008.24,2045.00,3456.05,3329.00,3621.98,349.74,319.36,9.55,0000 0000 0000 0000 000000
2013-08-19 00:23:35,0.00,0.06,0.00,24.57,28.67,30.31,5.89,30.83,1008.25,2045.00,3456.03,3329.00,3621.98,350.17,319.76,9.56,0000 0000 0000 0000 000000
2013-08-19 00:24:35,0.00,0.06,0.00,24.57,28.67,30.31,6.08,30.88,1008.25,2045.00,3456.04,3329.00,3621.99,350.94,320.46,9.56,0000 0000 0000 0000 000000
2013-08-19 00:25:35,0.00,0.06,0.00,24.61,28.67,30.35,6.02,30.75,1008.25,2045.00,3456.05,3329.00,3621.99,350.37,319.89,9.57,0000 0000 0000 0000 000000
2013-08-19 00:26:35,0.00,0.06,0.00,24.58,28.67,30.42,5.87,30.92,1008.29,2045.00,3456.05,3329.00,3621.99,349.59,319.50,9.57,0000 0000 0000 0000 000000
2013-08-19 00:27:35,0.00,0.06,0.00,24.58,28.67,30.38,5.89,30.75,1008.30,2045.00,3456.06,3329.00,3621.98,350.52,320.31,9.58,0000 0000 0000 0000 000000
2013-08-19 00:28:35,0.00,0.06,0.00,24.59,28.67,30.40,5.89,30.83,1008.31,2045.00,3456.03,3329.00,3621.99,350.21,320.15,9.58,0000 0000 0000 0000 000000
2013-08-19 00:29:35,0.00,0.06,0.00,24.56,28.67,30.36,5.99,30.83,1008.31,2045.00,3456.02,3329.00,3621.99,350.03,319.42,9.59,0000 0000 0000 0000 000000
2013-08-19 00:30:36,0.00,0.06,0.00,24.58,28.67,30.38,5.83,30.71,1008.31,2045.00,3456.01,3329.00,3621.99,350.21,319.81,9.60,0000 0000 0000 0000 000000
2013-08-19 00:31:36,0.00,0.06,0.00,24.55,28.67,30.37,5.84,30.71,1008.31,2045.00,3456.00,3329.00,3621.97,349.37,319.00,9.60,0000 0000 0000 0000 000000
2013-08-19 00:32:36,0.00,0.06,0.00,24.53,28.68,30.39,6.00,30.71,1008.31,2045.00,3456.01,3329.00,3621.97,349.82,319.51,9.61,0000 0000 0000 0000 000000
2013-08-19 00:33:37,0.00,0.06,0.00,24.50,28.68,30.39,5.90,30.88,1008.31,2045.00,3456.02,3329.00,3621.97,350.10,319.79,9.61,0000 0000 0000 0000 000000
2013-08-19 00:34:37,0.00,0.06,0.00,24.48,28.68,30.32,5.94,31.00,1008.31,2045.00,3456.01,3329.00,3621.97,349.13,318.93,9.62,0000 0000 0000 0000 000000
2013-08-19 00:35:37,0.00,0.06,0.00,24.51,28.69,30.32,5.92,30.88,1008.31,2045.00,3456.00,3329.00,3621.97,349.94,319.54,9.63,0000 0000 0000 0000 000000
2013-08-19 00:36:37,0.00,0.06,0.00,24.52,28.69,30.35,5.86,30.71,1008.31,2045.00,3456.00,3329.00,3621.99,350.17,319.84,9.63,0000 0000 0000 0000 000000
2013-08-19 00:37:37,0.00,0.06,0.00,24.52,28.69,30.43,5.83,30.92,1008.31,2045.00,3456.00,3329.00,3621.98,349.28,319.03,9.64,0000 0000 0000 0000 000000
2013-08-19 00:38:37,0.00,0.06,0.00,24.51,28.69,30.41,5.92,30.96,1008.31,2045.00,3456.02,3329.00,3621.99,349.79,319.50,9.64,0000 0000 0000 0000 000000
2013-08-19 00:39:37,0.00,0.06,0.00,24.51,28.70,30.43,5.93,30.75,1008.31,2045.00,3456.01,3329.00,3621.97,351.22,320.80,9.65,0000 0000 0000 0000 000000
2013-08-19 00:40:38,0.00,0.06,0.00,24.50,28.70,30.43,5.91,31.13,1008.31,2045.00,3456.00,3329.00,3621.96,350.43,320.13,9.65,0000 0000 0000 0000 000000
2013-08-19 00:41:38,0.00,0.06,0.00,24.48,28.70,30.34,6.00,31.13,1008.31,2045.00,3456.00,3328.98,3621.94,350.14,319.84,9.66,0000 0000 0000 0000 000000
2013-08-19 00:42:38,0.00,0.06,0.00,24.52,28.70,30.34,5.81,31.13,1008.31,2045.00,3456.00,3328.98,3621.95,349.49,319.12,9.67,0000 0000 0000 0000 000000
2013-08-19 00:43:39,0.00,0.06,0.00,24.54,28.70,30.31,5.90,31.08,1008.31,2045.00,3456.00,3328.99,3621.97,349.21,319.30,9.67,0000 0000 0000 0000 000000
2013-08-19 00:44:39,0.00,0.06,0.00,24.54,28.70,30.28,5.88,30.83,1008.31,2045.00,3456.00,3328.99,3621.88,350.19,319.84,9.68,0000 0000 0000 0000 000000
2013-08-19 00:45:39,0.00,0.06,0.00,24.55,28.70,30.32,5.92,30.88,1008.31,2045.00,3456.00,3328.99,3621.91,350.46,320.08,9.68,0000 0000 0000 0000 000000
2013-08-19 00:46:39,0.00,0.06,0.00,24.56,28.70,30.38,5.83,30.63,1008.31,2045.00,3456.00,3328.99,3621.95,349.38,319.07,9.69,0000 0000 0000 0000 000000
2013-08-19 00:47:39,0.00,0.06,0.00,24.55,28.70,30.49,5.87,31.13,1008.31,2045.00,3456.00,3328.99,3621.94,349.86,319.52,9.70,0000 0000 0000 0000 000000
2013-08-19 00:48:40,0.00,0.06,0.00,24.51,28.70,30.48,5.85,30.83,1008.31,2045.00,3456.00,3328.99,3621.88,349.76,319.47,9.70,0000 0000 0000 0000 000000
2013-08-19 00:49:40,0.00,0.06,0.00,24.54,28.70,30.45,5.87,30.54,1008.31,2045.00,3456.00,3328.99,3621.88,350.06,319.72,9.71,0000 0000 0000 0000 000000
2013-08-19 00:50:40,0.00,0.06,0.00,24.55,28.70,30.38,5.92,30.92,1008.32,2045.00,3456.00,3328.99,3621.86,349.50,319.20,9.71,0000 0000 0000 0000 000000
2013-08-19 00:51:40,0.00,0.06,0.00,24.56,28.70,30.34,6.01,30.71,1008.32,2045.00,3456.00,3328.99,3621.81,350.88,320.42,9.72,0000 0000 0000 0000 000000
2013-08-19 00:52:40,0.01,0.06,0.00,24.54,28.70,30.33,5.93,31.00,1008.32,2045.00,3456.00,3328.99,3621.75,350.12,319.52,9.73,0000 0000 0000 0000 000000
2013-08-19 00:53:40,0.00,0.06,0.00,24.53,28.70,30.32,5.92,30.67,1008.32,2045.00,3456.00,3328.98,3621.71,349.44,319.55,9.73,0000 0000 0000 0000 000000
2013-08-19 00:54:41,0.01,0.06,0.00,24.50,28.70,30.32,5.99,30.88,1008.32,2045.00,3456.00,3328.99,3621.77,350.23,319.70,9.74,0000 0000 0000 0000 000000
2013-08-19 00:55:41,-0.01,0.06,0.00,24.47,28.70,30.34,5.90,30.96,1008.32,2045.00,3456.00,3328.99,3621.65,349.20,319.46,9.74,0000 0000 0000 0000 000000
2013-08-19 00:56:41,0.02,0.06,0.00,24.52,28.70,30.33,5.77,30.75,1008.32,2045.00,3456.00,3328.99,3621.44,349.09,318.85,9.75,0000 0000 0000 0000 000000
2013-08-19 00:57:41,0.01,0.06,0.00,24.56,28.70,30.31,5.98,30.54,1008.32,2045.00,3456.00,3328.98,3621.36,349.77,319.43,9.75,0000 0000 0000 0000 000000
2013-08-19 00:58:41,0.01,0.06,0.00,24.57,28.70,30.27,5.93,30.96,1008.32,2045.00,3455.99,3328.96,3621.26,349.67,319.60,9.76,0000 0000 0000 0000 000000
2013-08-19 00:59:41,0.02,0.06,0.00,24.61,28.71,30.27,5.84,31.00,1008.32,2045.00,3455.99,3328.96,3621.21,349.90,319.57,9.77,0000 0000 0000 0000 000000
2013-08-19 01:00:42,0.00,0.06,0.00,24.61,28.71,30.26,5.69,30.75,1008.32,2045.00,3455.98,3328.95,3621.18,348.56,318.27,9.77,0000 0000 0000 0000 000000
2013-08-19 01:01:42,0.01,0.06,0.00,24.58,28.72,30.27,5.97,30.75,1008.32,2045.00,3455.97,3328.90,3621.13,350.27,319.87,9.78,0000 0000 0000 0000 000000
2013-08-19 01:02:42,0.01,0.06,0.00,24.58,28.72,30.24,5.87,30.75,1008.32,2045.00,3455.98,3328.91,3621.09,349.15,319.20,9.78,0000 0000 0000 0000 000000
2013-08-19 01:03:42,0.00,0.06,0.00,24.57,28.72,30.25,5.92,30.75,1008.32,2045.00,3455.95,3328.92,3621.08,349.73,319.38,9.79,0000 0000 0000 0000 000000
2013-08-19 01:04:43,0.00,0.06,0.00,24.58,28.72,30.23,5.98,30.67,1008.32,2045.00,3455.96,3328.86,3621.07,350.38,319.97,9.80,0000 0000 0000 0000 000000
2013-08-19 01:05:43,0.01,0.06,0.00,24.58,28.72,30.37,5.89,30.71,1008.32,2045.00,3455.97,3328.76,3621.03,350.62,320.21,9.80,0000 0000 0000 0000 000000
2013-08-19 01:06:43,0.01,0.06,0.00,24.58,28.72,30.44,5.99,30.58,1008.32,2045.00,3455.97,3328.76,3621.05,350.96,320.81,9.81,0000 0000 0000 0000 000000
2013-08-19 01:07:44,0.00,0.06,0.00,24.60,28.72,30.36,5.83,30.67,1008.32,2045.00,3455.96,3328.70,3621.02,349.47,318.93,9.81,0000 0000 0000 0000 000000
2013-08-19 01:08:44,0.02,0.06,0.00,24.61,28.72,30.37,6.02,30.92,1008.32,2044.99,3455.94,3328.62,3621.05,350.01,319.59,9.82,0000 0000 0000 0000 000000
2013-08-19 01:09:44,-0.00,0.06,0.00,24.61,28.72,30.39,5.90,30.71,1008.34,2044.99,3455.91,3328.67,3621.03,349.13,318.79,9.82,0000 0000 0000 0000 000000
2013-08-19 01:10:44,-0.00,0.06,0.00,24.60,28.72,30.47,5.91,30.79,1008.33,2044.99,3455.78,3328.63,3621.02,349.89,319.50,9.83,0000 0000 0000 0000 000000
2013-08-19 01:11:44,0.03,0.06,0.00,24.61,28.72,30.44,6.02,30.88,1008.33,2044.99,3455.86,3328.61,3621.01,349.27,318.92,9.84,0000 0000 0000 0000 000000
2013-08-19 01:12:45,0.00,0.06,0.00,24.59,28.72,30.48,5.79,30.79,1008.33,2044.99,3455.92,3328.59,3621.01,349.71,319.35,9.84,0000 0000 0000 0000 000000
2013-08-19 01:13:45,-0.01,0.06,0.00,24.58,28.72,30.48,5.97,30.71,1008.33,2044.99,3455.93,3328.63,3621.00,350.79,319.97,9.85,0000 0000 0000 0000 000000
2013-08-19 01:14:45,0.00,0.06,0.00,24.61,28.72,30.47,5.90,30.75,1008.32,2044.99,3455.93,3328.56,3621.00,349.68,319.71,9.85,0000 0000 0000 0000 000000
2013-08-19 01:15:45,0.02,0.06,0.00,24.68,28.72,30.43,6.07,30.92,1008.34,2044.98,3455.97,3328.61,3621.00,350.67,319.80,9.86,0000 0000 0000 0000 000000
2013-08-19 01:16:46,-0.05,0.06,0.00,24.69,28.72,30.34,5.89,30.71,1008.34,2044.98,3455.94,3328.58,3621.00,349.96,319.72,9.87,0000 0000 0000 0000 000000
2013-08-19 01:17:46,0.04,0.06,0.00,24.66,28.72,30.37,5.95,30.88,1008.36,2044.99,3455.91,3328.47,3621.01,350.02,319.53,9.87,0000 0000 0000 0000 000000
2013-08-19 01:18:46,0.02,0.06,0.00,24.62,28.73,30.35,5.93,30.92,1008.38,2044.98,3455.86,3328.47,3621.00,350.50,320.05,9.88,0000 0000 0000 0000 000000
2013-08-19 01:19:46,0.01,0.06,0.00,24.64,28.73,30.33,5.92,30.71,1008.38,2044.99,3455.90,3328.46,3621.00,350.68,320.19,9.88,0000 0000 0000 0000 000000
2013-08-19 01:20:46,-0.01,0.06,0.00,24.65,28.73,30.32,5.79,30.63,1008.49,2044.98,3455.88,3328.46,3621.01,349.33,319.30,9.89,0000 0000 0000 0000 000000
2013-08-19 01:21:46,0.00,0.06,0.00,24.68,28.73,30.32,6.04,30.88,1008.61,2044.98,3455.77,3328.28,3621.00,350.13,319.73,9.89,0000 0000 0000 0000 000000
2013-08-19 01:22:46,0.05,0.06,0.00,24.66,28.73,30.30,5.92,30.63,1008.55,2044.99,3455.78,3328.29,3621.00,350.21,319.78,9.90,0000 0000 0000 0000 000000
2013-08-19 01:23:46,0.00,0.06,0.00,24.68,28.74,30.30,5.81,30.75,1008.53,2044.98,3455.65,3328.19,3621.00,349.54,319.48,9.91,0000 0000 0000 0000 000000
2013-08-19 01:24:47,0.03,0.06,0.00,24.67,28.74,30.31,5.87,30.92,1008.45,2044.99,3455.79,3328.30,3621.00,349.37,318.98,9.91,0000 0000 0000 0000 000000
2013-08-19 01:25:47,-0.04,0.06,0.00,24.65,28.75,30.32,5.98,30.75,1008.57,2044.99,3455.83,3328.33,3621.00,350.26,319.59,9.92,0000 0000 0000 0000 000000
2013-08-19 01:26:47,0.00,0.06,0.00,24.65,28.75,30.36,5.99,30.71,1008.52,2044.98,3455.81,3328.25,3621.00,350.74,319.79,9.92,0000 0000 0000 0000 000000
2013-08-19 01:27:47,0.00,0.06,0.00,24.68,28.75,30.43,5.90,30.58,1008.47,2044.99,3455.72,3328.15,3621.00,350.44,319.87,9.93,0000 0000 0000 0000 000000
2013-08-19 01:28:47,0.03,0.06,0.00,24.66,28.75,30.44,5.92,30.83,1008.47,2044.99,3455.63,3328.11,3621.00,350.09,319.66,9.94,0000 0000 0000 0000 000000
2013-08-19 01:29:48,0.02,0.06,0.00,24.66,28.75,30.50,5.82,30.75,1008.46,2044.99,3455.61,3328.05,3621.00,350.16,319.79,9.94,0000 0000 0000 0000 000000
2013-08-19 01:30:48,0.02,0.06,0.00,24.67,28.75,30.54,6.00,30.71,1008.43,2044.99,3455.61,3328.07,3621.00,350.23,319.36,9.95,0000 0000 0000 0000 000000
2013-08-19 01:31:48,-0.01,0.06,0.00,24.65,28.75,30.59,5.97,30.96,1008.48,2044.98,3455.57,3328.11,3621.00,350.84,319.87,9.95,0000 0000 0000 0000 000000
2013-08-19 01:32:48,-0.01,0.06,0.00,24.64,28.75,30.50,5.88,30.50,1008.43,2044.99,3455.43,3328.07,3621.00,349.82,319.78,9.96,0000 0000 0000 0000 000000
2013-08-19 01:33:48,0.04,0.06,0.00,24.67,28.75,30.39,5.99,30.96,1008.43,2044.97,3455.29,3328.04,3620.99,350.96,319.96,9.97,0000 0000 0000 0000 000000
2013-08-19 01:34:48,0.00,0.06,0.00,24.64,28.75,30.37,5.95,30.58,1008.43,2044.97,3455.36,3328.06,3620.99,349.92,319.37,9.97,0000 0000 0000 0000 000000
2013-08-19 01:35:48,0.00,0.06,0.00,24.63,28.75,30.38,5.86,30.42,1008.49,2044.96,3455.36,3328.09,3620.99,349.52,319.18,9.98,0000 0000 0000 0000 000000
2013-08-19 01:36:49,0.00,0.06,0.00,24.66,28.75,30.38,6.07,31.00,1008.54,2044.97,3455.28,3328.07,3620.99,350.72,320.26,9.98,0000 0000 0000 0000 000000
2013-08-19 01:37:49,0.02,0.06,0.00,24.72,28.75,30.38,5.98,30.67,1008.61,2044.97,3455.10,3328.03,3620.99,350.11,319.67,9.99,0000 0000 0000 0000 000000
2013-08-19 01:38:49,0.02,0.06,0.00,24.68,28.75,30.38,5.96,30.67,1008.62,2044.97,3455.08,3328.03,3620.99,349.51,319.16,9.99,0000 0000 0000 0000 000000
2013-08-19 01:39:50,0.00,0.06,0.00,24.67,28.75,30.46,5.95,31.00,1008.62,2044.97,3455.07,3328.05,3620.99,349.80,319.43,10.00,0000 0000 0000 0000 000000
2013-08-19 01:40:50,0.00,0.06,0.00,24.67,28.75,30.62,5.91,30.92,1008.51,2044.93,3455.04,3328.03,3620.98,350.56,319.99,10.01,0000 0000 0000 0000 000000
2013-08-19 01:41:50,-0.03,0.06,0.00,24.68,28.76,30.55,5.78,31.21,1008.46,2044.92,3455.03,3328.01,3620.98,349.60,319.20,10.01,0000 0000 0000 0000 000000
2013-08-19 01:42:50,-0.04,0.06,0.00,24.70,28.76,30.44,5.87,31.17,1008.39,2044.89,3455.02,3328.00,3620.97,349.09,318.96,10.02,0000 0000 0000 0000 000000
2013-08-19 01:43:50,0.01,0.06,0.00,24.68,28.77,30.40,6.03,31.33,1008.38,2044.92,3455.02,3328.00,3620.94,350.50,319.92,10.02,0000 0000 0000 0000 000000
2013-08-19 01:44:50,0.03,0.06,0.00,24.66,28.77,30.42,5.92,30.79,1008.47,2044.95,3455.01,3328.01,3620.95,349.47,318.87,10.03,0000 0000 0000 0000 000000
2013-08-19 01:45:51,0.02,0.06,0.00,24.69,28.77,30.44,5.84,30.67,1008.47,2044.96,3455.05,3328.01,3620.97,350.15,319.68,10.04,0000 0000 0000 0000 000000
2013-08-19 01:46:51,-0.02,0.06,0.00,24.69,28.77,30.44,5.81,30.54,1008.55,2044.95,3455.03,3328.01,3620.97,349.50,318.97,10.04,0000 0000 0000 0000 000000
2013-08-19 01:47:51,0.00,0.06,0.00,24.68,28.77,30.47,6.00,30.75,1008.62,2044.97,3455.05,3328.01,3620.98,350.34,319.68,10.05,0000 0000 0000 0000 000000
2013-08-19 01:48:51,0.02,0.06,0.00,24.70,28.77,30.48,5.78,30.63,1008.52,2044.94,3455.03,3328.00,3620.96,350.35,319.58,10.05,0000 0000 0000 0000 000000
2013-08-19 01:49:52,-0.03,0.06,0.00,24.68,28.77,30.52,5.84,30.63,1008.52,2044.94,3455.01,3328.00,3620.95,349.72,319.31,10.06,0000 0000 0000 0000 000000
2013-08-19 01:50:52,0.00,0.06,0.00,24.63,28.77,30.55,5.97,30.88,1008.50,2044.96,3455.02,3328.00,3620.96,350.24,319.84,10.06,0000 0000 0000 0000 000000
2013-08-19 01:51:52,0.02,0.06,0.00,24.67,28.77,30.56,6.01,30.79,1008.53,2044.98,3455.00,3328.00,3620.93,350.94,320.45,10.07,0000 0000 0000 0000 000000
2013-08-19 01:52:52,0.02,0.06,0.00,24.67,28.77,30.56,5.78,30.75,1008.53,2044.96,3455.00,3328.00,3620.90,348.89,318.92,10.08,0000 0000 0000 0000 000000
2013-08-19 01:53:52,0.00,0.06,0.00,24.67,28.77,30.57,5.97,30.75,1008.54,2044.91,3455.03,3328.00,3620.90,350.80,319.71,10.08,0000 0000 0000 0000 000000
2013-08-19 01:54:53,-0.04,0.06,0.00,24.66,28.77,30.61,6.05,30.75,1008.57,2044.86,3455.01,3328.00,3620.75,350.38,319.82,10.09,0000 0000 0000 0000 000000
2013-08-19 01:55:53,-0.02,0.06,0.00,24.66,28.77,30.63,5.98,30.83,1008.73,2044.91,3455.00,3328.00,3620.78,349.93,319.60,10.09,0000 0000 0000 0000 000000
2013-08-19 01:56:53,0.04,0.06,0.00,24.67,28.77,30.59,5.90,30.83,1008.72,2044.85,3455.00,3328.00,3620.78,350.58,319.76,10.10,0000 0000 0000 0000 000000
2013-08-19 01:57:53,-0.07,0.06,0.00,24.69,28.77,30.61,5.89,31.00,1008.69,2044.87,3455.00,3328.00,3620.88,349.86,319.39,10.11,0000 0000 0000 0000 000000
2013-08-19 01:58:53,0.03,0.06,0.00,24.66,28.78,30.74,6.01,30.96,1008.67,2044.87,3455.00,3328.00,3620.84,351.54,320.65,10.11,0000 0000 0000 0000 000000
2013-08-19 01:59:53,0.00,0.06,0.00,24.72,28.78,30.75,5.92,30.92,1008.72,2044.92,3455.00,3328.00,3620.87,349.65,319.45,10.12,0000 0000 0000 0000 000000
2013-08-19 02:00:54,0.04,0.06,0.00,24.74,28.78,30.71,5.74,30.83,1008.69,2044.88,3455.00,3328.00,3620.82,349.74,319.32,10.12,0000 0000 0000 0000 000000
2013-08-19 02:01:54,-0.02,0.06,0.00,24.75,28.79,30.66,5.80,30.83,1008.74,2044.82,3455.00,3328.00,3620.70,349.13,318.78,10.13,0000 0000 0000 0000 000000
2013-08-19 02:02:54,-0.04,0.06,0.00,24.72,28.79,30.75,5.87,30.67,1008.73,2044.84,3455.00,3328.00,3620.71,350.35,319.92,10.13,0000 0000 0000 0000 000000
2013-08-19 02:03:54,0.02,0.06,0.00,24.74,28.79,30.64,6.02,30.92,1008.75,2044.82,3455.00,3328.00,3620.49,351.12,320.60,10.14,0000 0000 0000 0000 000000
2013-08-19 02:04:54,0.02,0.06,0.00,24.75,28.80,30.63,5.84,30.67,1008.78,2044.69,3455.00,3327.99,3620.25,349.80,319.39,10.15,0000 0000 0000 0000 000000
2013-08-19 02:05:55,-0.10,0.06,0.00,24.69,28.80,30.62,5.91,30.63,1008.77,2044.57,3455.00,3327.96,3620.16,349.91,319.55,10.15,0000 0000 0000 0000 000000
2013-08-19 02:06:55,-0.09,0.06,0.00,24.67,28.80,30.63,5.93,30.75,1008.78,2044.50,3455.00,3327.97,3620.14,350.21,319.86,10.16,0000 0000 0000 0000 000000
2013-08-19 02:07:55,-0.04,0.06,0.00,24.66,28.80,30.59,5.73,30.96,1008.73,2044.40,3455.00,3327.96,3620.09,350.23,319.81,10.16,0000 0000 0000 0000 000000
2013-08-19 02:08:56,-0.09,0.06,0.00,24.66,28.80,30.62,5.97,30.92,1008.68,2044.36,3455.00,3327.97,3620.07,349.81,319.47,10.17,0000 0000 0000 0000 000000
2013-08-19 02:09:56,-0.01,0.06,0.00,24.68,28.80,30.61,6.02,30.75,1008.68,2044.34,3455.00,3327.96,3620.06,350.94,320.48,10.18,0000 0000 0000 0000 000000
2013-08-19 02:10:56,0.00,0.06,0.00,24.64,28.80,30.61,5.86,30.75,1008.64,2044.44,3455.00,3327.98,3620.08,349.62,319.31,10.18,0000 0000 0000 0000 000000
2013-08-19 02:11:56,0.09,0.06,0.00,24.65,28.80,30.53,6.03,30.79,1008.72,2044.49,3455.00,3327.99,3620.10,351.14,320.70,10.19,0000 0000 0000 0000 000000
2013-08-19 02:12:56,0.06,0.06,0.00,24.70,28.80,30.46,6.02,30.96,1008.78,2044.73,3455.00,3327.98,3620.27,349.87,319.52,10.19,0000 0000 0000 0000 000000
2013-08-19 02:13:56,0.17,0.06,0.00,24.70,28.80,30.43,5.80,30.50,1008.78,2044.81,3455.00,3327.99,3620.31,350.06,319.69,10.20,0000 0000 0000 0000 000000
2013-08-19 02:14:57,0.03,0.06,0.00,24.72,28.80,30.45,5.88,30.79,1008.79,2044.71,3455.00,3327.99,3620.22,349.86,319.50,10.20,0000 0000 0000 0000 000000
2013-08-19 02:15:57,-0.09,0.06,0.00,24.75,28.80,30.46,5.86,30.71,1008.80,2044.60,3455.00,3327.98,3620.11,350.09,319.81,10.21,0000 0000 0000 0000 000000
2013-08-19 02:16:57,-0.06,0.06,0.00,24.70,28.80,30.45,6.04,30.67,1008.79,2044.48,3455.00,3327.99,3620.08,351.08,320.70,10.22,0000 0000 0000 0000 000000
2013-08-19 02:17:57,-0.06,0.06,0.00,24.65,28.80,30.44,5.90,30.63,1008.80,2044.57,3455.00,3327.99,3620.09,349.48,319.22,10.22,0000 0000 0000 0000 000000
2013-08-19 02:18:57,0.05,0.06,0.00,24.65,28.80,30.44,5.88,30.58,1008.80,2044.58,3454.99,3327.98,3620.12,349.68,319.64,10.23,0000 0000 0000 0000 000000
2013-08-19 02:19:58,0.02,0.06,0.00,24.64,28.81,30.44,5.88,30.71,1008.79,2044.63,3454.99,3327.98,3620.11,349.87,319.40,10.23,0000 0000 0000 0000 000000
2013-08-19 02:20:58,0.02,0.06,0.00,24.63,28.81,30.46,6.02,30.79,1008.68,2044.61,3454.98,3327.96,3620.07,350.31,319.95,10.24,0000 0000 0000 0000 000000
2013-08-19 02:21:58,-0.01,0.06,0.00,24.69,28.82,30.42,5.88,31.21,1008.68,2044.38,3454.98,3327.94,3620.03,349.45,319.10,10.25,0000 0000 0000 0000 000000
2013-08-19 02:22:58,-0.17,0.06,0.00,24.69,28.82,30.40,5.81,30.79,1008.73,2044.27,3454.97,3327.89,3620.01,350.46,319.04,10.25,0000 0000 0000 0000 000000
2013-08-19 02:23:59,-0.06,0.06,0.00,24.67,28.82,30.44,5.93,30.75,1008.72,2044.28,3454.97,3327.92,3620.00,350.54,320.13,10.26,0000 0000 0000 0000 000000
2013-08-19 02:24:59,0.00,0.06,0.00,24.66,28.82,30.45,5.74,30.50,1008.70,2044.23,3454.98,3327.94,3620.01,348.82,318.57,10.26,0000 0000 0000 0000 000000
2013-08-19 02:25:59,-0.03,0.06,0.00,24.64,28.82,30.57,5.81,30.54,1008.70,2044.18,3454.97,3327.91,3620.01,349.47,319.19,10.27,0000 0000 0000 0000 000000
2013-08-19 02:26:59,-0.04,0.06,0.00,24.70,28.82,30.56,5.80,30.88,1008.77,2044.12,3454.92,3327.83,3620.00,349.27,318.97,10.28,0000 0000 0000 0000 000000
2013-08-19 02:28:00,-0.03,0.05,0.00,24.72,28.82,30.52,5.92,30.96,1008.80,2044.16,3454.93,3327.87,3620.00,349.68,319.19,10.28,0000 0000 0000 0000 000000
2013-08-19 02:29:00,0.03,0.06,0.00,24.73,28.82,30.54,5.88,30.79,1008.79,2044.33,3454.95,3327.91,3620.01,349.25,318.91,10.29,0000 0000 0000 0000 000000
2013-08-19 02:30:00,0.07,0.06,0.00,24.71,28.82,30.59,5.83,30.63,1008.80,2044.29,3454.93,3327.90,3620.01,349.79,319.69,10.29,0000 0000 0000 0000 000000
2013-08-19 02:31:00,0.03,0.06,0.00,24.70,28.82,30.75,5.91,30.79,1008.80,2044.22,3454.94,3327.90,3620.01,350.58,320.04,10.30,0000 0000 0000 0000 000000
2013-08-19 02:32:01,-0.05,0.06,0.00,24.74,28.82,30.66,5.92,30.67,1008.80,2044.17,3454.96,3327.88,3620.00,350.43,320.17,10.30,0000 0000 0000 0000 000000
2013-08-19 02:33:01,-0.05,0.06,0.00,24.73,28.82,30.55,5.81,30.63,1008.80,2044.21,3454.95,3327.92,3620.01,349.54,319.29,10.31,0000 0000 0000 0000 000000
2013-08-19 02:34:01,0.02,0.06,0.00,24.74,28.82,30.66,5.98,30.83,1008.80,2044.18,3454.90,3327.89,3620.02,350.19,319.83,10.32,0000 0000 0000 0000 000000
2013-08-19 02:35:01,-0.02,0.06,0.00,24.75,28.82,30.73,5.99,30.88,1008.80,2044.16,3454.81,3327.81,3620.00,349.71,319.38,10.32,0000 0000 0000 0000 000000
2013-08-19 02:36:02,0.04,0.06,0.00,24.75,28.82,30.73,5.78,30.71,1008.80,2044.16,3454.85,3327.76,3620.00,349.31,318.96,10.33,0000 0000 0000 0000 000000